Location: Angwan Shehu
(11.2514°N, 7.4613°E)
Time: 00:08:43
(UTC+00:00)

Tiros 1 - Pass Details

Date: 22 April 2021
Orbit: 630 x 664 km, 48.4° (Epoch: 06 May)

Event Time Altitude Azimuth Distance (km) Brightness Sun altitude
Rises 15:50:23 0° 322° (NW) 2,905 11.2 26.1°
Reaches altitude 10° 15:52:41 10° 323° (NW) 2,001 10.5 25.5°
Maximum altitude 15:57:17 78° 50° (NE) 647 7.5 24.4°
Drops below altitude 10° 16:01:56 10° 137° (SE) 2,017 9.3 23.3°
Sets 16:04:16 0° 138° (SE) 2,931 10.1 22.7°
